RH
87 86 84 80 78 76 75 73 72 71 70 68 67 67 67 66 63 61 58 56 53 50 48 45 43 42 41 39 38 37 36 35 34 33 31 30 29 28 27 26 25 25
87 85 84 81 78 77 76 75 74 73 71 70 68 66 64 62 59 56 54 51 49 48 46 44 43 41 40 38 37 35 34 33 32 31 30 30 29 28 28 27 26 25
77 76 75 74 72 71 69 68 67 65 64 62 60 57 55 53 51 49 47 46 44 43 41 40 39 38 37 36 35 34 33 33 32 31 31 30 29 28 27 26 25 25
61 60 60 59 58 57 56 55 54 53 52 51 49 48 46 45 44 43 43 42 41 40 39 39 38 37 37 35 35 34 33 33 32 31 31 30 29 29 28 28 27 27
54 53 52 52 51 51 51 51 50 50 49 49 48 47 46 45 45 44 43 43 42 41 40 39 38 37 37 36 36 36 35 35 35 36 36 36 34 33 33 32 31 30
56 55 55 55 55 55 56 56 56 55 54 52 51 50 49 49 48 47 46 45 45 45 44 43 41 40 40 41 42 42 43 44 44 43 43 41 39 36 34 33 33 32
61 61 61 61 62 62 63 63 62 60 59 58 57 56 55 54 54 53 53 53 53 53 52 50 49 48 49 50 51 51 51 50 48 47 44 42 40 38 37 36 37 37
67 67 67 67 68 68 68 68 68 68 68 67 66 65 64 63 63 63 63 63 62 61 60 58 57 57 57 57 57 56 55 54 51 48 46 44 43 42 41 41 41 40
70 69 70 70 71 72 73 73 74 75 75 75 74 73 72 71 70 70 69 69 68 66 64 63 62 61 61 60 59 58 56 54 52 50 49 48 47 46 45 44 42 39
72 71 71 71 71 71 72 72 72 72 73 73 72 71 70 70 69 68 68 67 66 64 62 61 61 60 58 57 56 56 55 54 54 53 53 52 50 48 45 42 39 36
73 72 72 72 72 72 71 71 70 69 68 68 67 67 66 65 64 64 63 62 61 60 59 59 58 57 56 56 56 56 57 57 57 57 56 54 51 47 44 40 37 34
74 74 73 73 74 76 76 76 76 75 74 73 72 70 69 68 68 67 66 64 62 61 60 61 60 59 58 58 59 60 61 62 61 60 57 54 50 45 40 35 30 25
82 81 82 83 84 85 86 87 87 87 87 87 87 85 83 81 81 79 76 72 69 67 66 66 65 64 64 64 66 67 67 65 62 57 52 47 42 35 29 24 20 18
90 91 93 95 97 98 99 99 99 100 101 101 100 99 96 93 92 89 85 80 77 75 74 73 72 69 67 67 66 65 62 58 53 47 41 35 30 25 21 19 19 20
91 95 99 103 107 109 110 110 109 109 108 105 102 100 98 95 93 89 85 81 78 76 73 70 67 63 60 58 56 54 51 48 44 39 34 29 26 23 22 22 22 23
75 82 89 94 98 101 101 101 100 98 95 91 87 84 83 81 78 74 71 70 69 67 65 61 58 54 52 50 49 48 47 45 42 38 32 29 26 25 25 25 26 25
63 68 74 78 81 83 83 83 83 80 76 71 68 66 66 66 66 65 64 63 63 61 59 56 54 51 49 48 47 46 45 44 41 36 32 30 29 29 28 27 25 22
70 73 77 79 81 81 81 79 77 72 67 64 63 65 67 67 66 64 62 60 59 58 57 56 53 51 50 49 47 45 42 40 37 35 33 33 32 30 27 23 20 16
84 86 87 87 86 84 83 80 77 72 69 69 69 70 69 66 63 61 60 59 58 59 58 56 53 51 49 47 44 41 39 37 36 35 33 32 29 25 21 18 15 13
93 93 92 90 87 86 85 83 79 75 72 70 68 67 65 63 62 62 60 59 59 59 58 55 52 49 47 45 42 39 38 37 35 33 29 26 23 19 16 14 13 12
96 94 93 90 87 86 83 79 74 69 66 65 66 67 67 66 66 64 62 60 59 58 57 54 50 47 45 42 39 37 36 34 31 27 24 21 18 15 13 12 11 11
93 91 87 84 81 78 73 69 66 64 65 68 71 72 70 68 66 64 62 61 59 57 55 52 48 45 42 39 36 34 32 30 26 23 19 17 15 13 12 12 12 13
85 81 78 75 73 71 69 67 67 67 69 70 71 70 68 66 64 63 61 60 58 55 52 49 46 41 38 35 32 30 28 25 21 18 16 15 14 14 14 14 14 14
77 75 73 72 71 70 70 71 71 71 70 68 67 65 64 63 62 62 60 57 54 51 48 45 42 37 34 31 29 26 22 20 17 16 15 15 16 17 16 16 15 14
75 74 73 73 72 72 72 71 71 69 67 65 64 63 63 63 61 60 58 54 50 47 44 41 39 35 31 27 23 21 18 17 17 16 17 17 18 18 17 16 16 15
76 76 76 76 74 73 71 70 68 66 65 64 64 63 62 61 58 55 53 50 48 45 42 39 36 31 26 22 19 18 17 17 18 17 18 19 19 19 18 18 18 18
Wind_Speed
111 112 113 113 114 115 116 117 118 119 120 121 122 122 123 124 125 126 127 128 129 130 131 132 132 133 134 135 136 137 138 138 139 140 141 142 143 144 145 146 146 147
113 114 115 116 116 117 118 119 120 121 122 123 124 125 126 127 128 128 129 130 131 132 133 133 134 135 136 136 137 138 139 140 141 142 143 143 144 145 146 147 147 148
115 116 117 118 118 119 120 121 122 123 124 125 126 127 128 128 129 130 131 131 132 133 133 134 135 135 136 137 138 139 139 140 141 143 143 144 145 146 147 148 149 149
116 117 118 119 119 120 121 122 123 124 125 126 126 127 128 129 130 130 131 132 132 133 134 135 135 136 137 138 139 140 141 142 143 144 145 147 147 148 149 149 150 150
118 118 119 120 121 121 122 123 124 125 126 127 127 128 129 130 131 132 132 133 134 135 135 136 137 138 139 140 141 142 143 144 145 146 147 148 149 149 148 148 148 148
121 121 122 123 123 124 125 126 127 127 128 129 130 131 132 132 133 134 135 136 136 137 138 139 140 140 141 142 142 143 144 145 145 146 146 146 147 146 145 145 145 144
122 123 124 125 126 127 128 129 130 131 132 132 133 134 135 135 136 137 137 138 139 140 140 140 140 140 140 141 141 141 142 142 143 143 143 143 144 144 143 143 143 143
119 121 122 123 125 126 127 129 130 131 132 133 134 134 135 135 136 136 137 137 138 138 139 139 138 138 138 138 138 138 139 140 140 141 142 142 143 143 143 143 143 143
116 117 118 119 121 122 124 125 126 128 129 130 131 132 132 133 133 134 134 134 135 135 136 135 135 135 135 135 135 136 137 138 139 140 140 141 142 142 142 141 141 141
114 115 116 117 118 119 121 122 123 124 126 127 128 129 129 130 130 131 131 131 132 132 132 133 133 133 133 133 133 134 135 136 137 138 138 139 140 140 140 140 140 140
115 116 116 117 118 119 120 121 121 122 123 124 125 126 126 127 127 127 127 128 129 129 129 130 130 131 130 130 130 131 132 133 134 135 136 137 138 139 139 140 140 140
115 116 117 117 118 119 120 121 121 122 123 123 124 124 125 125 125 126 126 126 127 127 128 128 128 128 128 128 128 129 130 131 132 134 135 137 138 139 139 140 140 139
115 116 116 117 118 119 120 121 121 122 123 123 124 124 125 125 126 126 127 127 127 127 127 128 128 127 127 126 127 128 129 130 131 132 134 135 137 138 138 138 136 135
114 115 115 116 117 118 120 120 121 122 123 124 125 126 126 127 127 128 128 128 128 128 128 128 128 127 126 125 126 126 126 127 128 129 131 133 134 135 134 133 131 129
113 114 115 116 117 118 119 120 121 123 124 125 126 126 127 127 128 128 128 128 127 127 127 126 125 124 123 122 121 121 122 122 124 126 128 130 130 130 129 127 126 125
108 109 111 112 114 115 116 117 119 120 121 122 123 123 124 124 124 124 124 123 122 121 120 119 119 118 117 116 116 117 118 119 121 124 126 126 126 125 124 123 123 123
98 99 101 103 104 106 107 108 110 112 113 114 115 115 115 115 115 115 114 113 112 112 112 112 112 112 112 112 113 114 116 117 119 122 123 123 123 122 122 122 121 121
87 88 90 91 93 95 96 98 100 102 104 104 104 105 105 105 105 105 105 105 105 106 107 107 108 109 109 110 112 114 116 117 118 119 120 121 121 121 120 119 119 117
79 81 82 84 86 88 90 92 94 95 96 96 96 97 98 99 100 101 101 102 102 103 104 106 107 108 109 111 113 114 116 116 117 118 118 119 119 117 116 115 114 113
76 78 80 82 84 86 88 89 91 92 93 93 94 95 96 97 98 98 99 100 101 102 104 106 108 109 110 112 114 114 115 116 116 116 116 116 115 114 112 110 109 107
77 79 81 83 85 87 88 90 92 92 93 93 93 94 95 95 96 97 98 100 101 103 106 108 110 111 112 113 114 114 114 115 114 114 114 113 111 109 107 105 103 101
79 81 83 85 87 88 90 92 92 92 92 92 92 92 93 94 95 97 99 102 104 106 108 110 112 113 113 114 113 113 113 112 112 111 109 108 106 105 102 100 98 97
82 83 85 87 88 90 91 91 91 90 90 90 91 93 94 96 98 100 102 104 106 108 109 112 114 114 113 113 112 111 110 109 108 106 104 102 101 100 98 96 96 95
84 85 87 88 88 89 89 89 89 89 90 92 93 95 97 99 101 103 105 106 108 109 111 112 114 114 112 111 109 108 106 104 102 100 98 97 96 95 95 94 93 92
85 86 86 87 87 88 88 89 90 91 93 95 97 98 100 102 103 104 107 109 110 111 111 112 112 112 110 107 105 103 101 98 96 94 92 91 91 91 91 91 90 88
84 84 85 86 87 89 90 92 94 95 97 98 100 101 102 103 105 106 108 110 111 111 111 110 109 108 106 102 99 97 95 93 91 89 87 86 86 87 87 86 86 85
Wind_Direction
269 270 270 270 270 271 271 271 271 272 272 272 272 272 273 273 273 273 274 274 274 275 275 275 275 276 276 276 276 277 277 277 277 277 277 277 277 277 277 277 277 277
270 270 270 270 271 271 271 271 272 272 272 272 273 273 273 273 274 274 274 274 275 275 275 276 276 276 276 277 277 277 277 277 278 278 278 278 278 278 278 278 278 278
270 270 270 270 271 271 271 271 272 272 272 272 273 273 273 274 274 274 274 275 275 275 276 276 276 276 277 277 277 278 278 278 278 278 278 278 279 279 279 279 279 279
270 270 270 270 271 271 271 271 272 272 272 272 273 273 273 273 274 274 274 275 275 275 276 276 276 277 277 277 278 278 278 279 279 279 279 279 279 279 279 280 280 280
270 270 270 271 271 271 271 271 272 272 272 272 273 273 273 274 274 274 275 275 276 276 276 277 277 277 278 278 278 279 279 280 280 280 280 280 280 280 281 281 281 281
271 271 271 271 271 272 272 272 272 273 273 273 273 274 274 274 275 275 276 276 276 277 277 277 278 278 279 279 280 280 280 281 281 281 281 281 282 282 282 282 283 283
271 271 272 272 272 272 272 273 273 273 273 274 274 274 275 275 275 276 276 277 277 278 278 278 279 279 280 280 281 281 281 282 282 282 282 282 283 283 284 284 284 284
272 272 272 272 273 273 273 273 273 274 274 274 275 275 275 276 276 277 277 277 278 278 279 279 280 280 281 281 282 282 282 282 283 283 283 284 284 284 285 285 285 285
272 272 273 273 273 273 273 274 274 274 274 275 275 276 276 276 277 277 278 278 279 279 280 280 281 281 281 281 282 282 282 283 283 284 284 284 285 285 285 285 285 285
273 273 273 273 273 273 274 274 274 274 275 275 275 276 276 277 277 278 278 279 279 280 280 280 280 281 281 281 282 282 283 284 284 285 285 285 285 285 285 285 285 285
273 273 273 273 274 274 274 275 275 275 276 276 276 277 277 278 278 279 279 279 279 280 280 280 281 281 282 282 283 283 284 285 285 285 285 285 285 285 285 285 286 286
273 273 274 274 275 275 275 276 276 277 277 278 278 278 279 279 280 280 280 280 280 280 281 281 282 282 283 284 284 285 285 286 286 286 285 285 285 285 286 286 286 287
274 274 274 275 275 275 276 276 277 278 278 279 279 279 280 280 280 281 281 281 281 282 282 283 283 284 285 285 286 286 286 286 286 286 286 286 286 286 286 287 288 289
274 274 275 275 275 276 276 277 277 278 278 278 279 279 280 280 281 281 281 282 283 283 284 284 285 285 286 286 286 286 286 286 286 286 286 286 286 287 288 289 290 291
274 274 275 275 275 276 276 276 277 277 278 278 278 279 280 280 281 281 282 283 283 284 285 285 286 286 286 286 286 286 286 286 286 286 286 286 287 288 290 291 292 292
274 274 274 275 275 275 276 276 277 277 277 278 278 279 280 280 281 282 283 284 284 285 285 286 286 286 286 286 286 286 286 286 287 287 287 288 289 291 292 292 292 292
274 275 275 275 276 276 276 277 277 278 278 279 279 280 281 282 283 283 284 285 285 286 286 286 286 286 286 287 287 287 287 287 287 288 289 291 292 292 292 293 292 292
276 277 277 277 277 278 278 278 279 279 280 281 282 283 283 284 285 285 286 286 287 287 287 287 287 287 287 287 287 287 287 288 289 290 291 292 293 293 293 293 293 293
279 279 280 280 280 280 281 281 282 282 283 284 285 286 286 286 287 287 288 288 288 288 288 288 288 288 288 288 288 288 289 290 291 292 293 293 293 293 294 294 294 294
282 282 283 283 283 284 284 285 285 285 286 287 287 287 288 288 288 288 288 288 288 288 289 288 288 288 288 288 289 290 291 292 293 293 294 294 294 294 294 294 294 294
284 284 285 285 286 286 286 286 287 287 288 288 288 288 288 289 289 289 289 289 289 289 289 289 289 289 289 290 291 292 293 294 295 295 295 295 295 294 294 294 294 294
285 286 286 287 287 287 287 287 288 288 289 289 289 289 289 289 289 289 289 289 289 289 289 290 290 290 291 292 293 294 295 295 295 295 295 295 295 295 295 295 295 294
286 287 287 288 288 288 288 289 289 289 289 289 289 289 289 290 290 290 290 290 290 290 290 290 291 292 293 294 295 296 296 296 296 295 295 295 295 295 295 295 294 294
288 289 289 289 289 289 290 290 290 290 290 289 290 290 290 290 290 291 291 290 291 291 291 292 293 294 295 296 296 296 296 296 295 295 295 295 296 296 295 295 294 294
290 290 290 290 290 290 290 290 290 290 290 290 290 290 291 291 291 292 292 292 292 292 293 293 294 295 296 296 296 296 296 295 295 295 295 296 296 295 294 294 293 293
291 291 291 291 291 291 291 291 290 290 291 291 291 291 292 292 292 293 293 293 293 293 294 295 296 296 296 296 296 296 295 295 295 296 296 296 295 294 293 293 293 293